Location: Newark
(48.5667°N, 7.8167°E)
Time: 17:32:22
(UTC+00:00)

M-CUBED/EXP-1 PRIME - Visible Passes

Search period start: 03 July 2020 00:00
Search period end: 13 July 2020 00:00
Orbit: 429 x 665 km, 101.7° (Epoch: 02 July)

Date Brightness Start Highest point End Pass type
(mag) Time Alt. Az. Time Alt. Az. Time Alt. Az.
03 Jul ? 22:11:40 31° ESE 22:12:48 45° ENE 22:16:03 10° N visible
03 Jul ? 23:47:18 13° W 23:47:23 13° W 23:48:57 10° WNW visible
04 Jul ? 22:06:22 26° ESE 22:07:37 37° ENE 22:10:48 10° N visible
04 Jul ? 23:42:01 15° W 23:42:07 15° W 23:44:13 10° WNW visible
05 Jul ? 22:01:05 22° ESE 22:02:27 31° ENE 22:05:32 10° N visible
05 Jul ? 23:36:44 19° WSW 23:36:51 19° W 23:39:19 10° NW visible
06 Jul ? 21:55:48 19° E 21:57:18 26° ENE 22:00:14 10° N visible
06 Jul ? 23:31:27 23° WSW 23:31:35 23° W 23:34:21 10° NW visible
07 Jul ? 21:50:30 16° E 21:52:09 22° ENE 21:54:55 10° N visible
07 Jul ? 23:26:09 27° WSW 23:26:19 27° WSW 23:29:20 10° NW visible
08 Jul ? 21:45:13 14° E 21:47:00 19° ENE 21:49:35 10° N visible
08 Jul ? 23:20:52 33° WSW 23:21:04 33° WSW 23:24:16 10° NW visible
09 Jul ? 21:39:55 11° E 21:41:52 17° NE 21:44:12 10° NNE visible
09 Jul ? 23:15:34 40° WSW 23:15:49 41° WSW 23:19:11 10° NNW visible
10 Jul ? 21:34:46 10° E 21:36:44 15° NE 21:38:47 10° NNE visible
10 Jul ? 23:10:17 49° SW 23:10:35 51° WSW 23:14:04 10° NNW visible
11 Jul ? 21:30:00 10° E 21:31:38 13° NE 21:33:18 10° NNE visible
11 Jul ? 23:04:59 59° SW 23:05:22 64° WSW 23:08:55 10° NNW visible
12 Jul ? 21:25:23 10° ENE 21:26:30 11° NE 21:27:40 10° NNE visible
12 Jul ? 22:59:41 65° S 23:00:08 80° WSW 23:03:46 10° NNW visible
